Wind_Speed
20 20 20 20 20 20 20 18 17 17 17 17 18 19 21 23 25 27 29 30 32 34 36 37 39 40 40 40 39 38 38 35 33 32 32 31 31 30 30 29 27 27 26
20 20 20 20 20 20 18 17 15 15 15 15 16 17 18 19 20 22 25 28 30 32 33 35 37 40 41 41 41 40 39 38 37 34 33 33 33 32 32 31 30 30 29
19 20 20 20 19 18 17 16 15 15 14 14 15 15 16 16 17 19 21 23 26 29 31 33 35 37 39 40 41 42 41 40 39 38 35 34 33 33 34 33 32 32 31
18 19 20 19 18 18 18 17 16 15 14 14 14 14 14 14 15 17 18 20 22 26 29 31 33 35 37 39 41 42 43 43 41 41 39 36 36 35 35 34 34 35 34
18 19 19 19 18 18 18 18 16 15 15 14 13 12 13 13 13 14 16 18 20 23 26 29 31 33 35 37 40 41 42 43 43 43 42 40 38 36 35 35 35 35 36
18 19 19 19 19 19 19 19 18 17 16 15 14 13 13 13 13 13 14 15 17 20 23 26 28 30 32 34 37 39 40 42 44 44 44 43 41 39 37 36 36 36 37
18 19 19 20 20 19 20 19 19 18 17 17 16 15 14 13 12 12 12 13 15 17 19 22 25 27 29 31 34 36 38 40 42 44 45 45 44 42 39 38 37 37 38
18 18 19 20 20 20 21 20 20 20 19 19 18 17 16 15 14 13 13 13 14 15 17 20 22 25 27 29 31 33 35 38 41 43 45 44 44 43 41 39 38 38 38
18 18 19 19 20 20 21 22 21 21 21 21 20 19 19 17 15 14 12 12 12 14 16 18 20 23 25 27 29 31 34 36 39 41 43 44 44 44 44 41 40 39 38
18 18 19 19 19 20 21 22 23 23 23 22 22 21 20 19 18 16 14 13 12 12 14 16 18 20 22 25 27 29 32 34 37 38 40 42 44 44 44 44 42 40 40
18 19 19 19 19 20 20 22 23 24 23 23 23 23 22 21 20 18 16 15 13 12 12 13 14 16 18 21 24 26 28 31 33 35 37 39 42 43 43 44 43 42 41
18 19 19 19 19 20 20 21 22 23 24 24 24 24 24 24 22 20 19 18 16 14 13 13 12 13 14 16 19 21 24 27 29 31 34 36 39 40 41 42 42 42 41
17 18 18 19 19 20 20 21 21 22 23 24 25 25 25 25 24 23 21 20 19 16 14 12 11 11 11 12 14 17 19 22 25 27 29 32 34 37 38 39 40 41 40
16 17 17 18 19 19 20 21 21 22 22 23 24 25 25 25 25 25 24 22 21 20 18 15 13 10 9 8 9 11 14 17 20 23 26 28 29 32 34 36 37 38 38
16 16 17 17 18 19 19 20 21 21 22 22 23 24 25 25 26 25 25 24 23 22 20 18 16 12 9 7 6 7 10 12 15 17 20 24 26 28 29 32 34 35 36
15 16 16 17 17 18 19 20 20 21 22 22 23 23 24 25 25 26 26 25 24 23 22 20 18 15 11 9 7 5 4 7 10 13 16 19 21 25 26 28 30 31 32
14 15 16 16 17 18 18 19 20 21 21 22 22 23 23 24 25 26 26 26 25 25 23 22 20 17 14 12 9 6 4 3 6 9 12 15 17 20 24 26 27 28 28
14 15 16 16 17 17 18 19 19 20 21 21 22 22 23 23 24 25 25 26 26 25 24 23 21 19 17 14 12 10 6 3 3 5 7 10 13 14 18 20 23 24 23
15 16 16 17 17 17 18 18 19 19 20 21 21 21 21 22 23 24 24 25 25 25 24 24 23 21 19 17 14 13 9 6 3 2 4 6 8 10 12 14 18 20 21
15 16 16 17 17 18 18 18 19 19 19 20 20 21 21 21 21 22 23 24 24 24 23 23 22 21 20 18 17 15 12 9 6 2 2 4 6 8 9 10 13 16 18
16 16 17 17 17 18 18 18 19 19 19 19 20 20 20 20 20 21 21 22 23 22 22 21 21 20 20 19 18 17 15 13 10 6 2 1 4 5 7 8 9 11 13
17 17 18 18 18 18 18 19 19 19 19 19 19 19 19 19 20 19 20 20 21 21 20 20 20 19 19 18 17 17 16 14 12 9 6 2 2 4 5 7 8 9 11
18 18 19 19 19 19 19 19 19 19 19 19 19 19 19 19 19 19 19 18 19 19 19 18 18 18 18 17 17 16 16 14 12 10 8 5 2 1 3 5 6 7 8
20 20 20 20 20 20 20 20 20 20 20 20 20 20 20 20 19 19 18 18 17 17 17 17 17 17 16 16 16 15 15 14 13 10 8 7 4 1 1 2 4 5 6
22 22 22 22 22 22 22 22 21 21 21 21 20 20 20 20 20 19 19 18 17 17 17 16 16 16 16 15 15 15 14 13 13 11 9 7 5 2 1 1 3 3 4
24 24 25 25 25 25 24 23 23 23 22 22 22 21 21 20 20 20 20 19 19 18 17 16 16 16 15 15 14 14 13 12 12 11 8 6 5 3 1 1 2 3 4
Wind_Direction
337 336 333 330 328 325 321 316 310 303 296 290 285 278 272 267 264 260 256 252 249 248 246 245 243 242 242 242 242 241 240 240 241 240 239 237 235 234 232 231 230 230 229
342 341 340 337 335 333 330 324 319 315 308 300 292 285 280 273 267 263 258 253 250 247 245 245 244 242 241 240 240 240 240 239 239 237 236 236 235 234 234 234 233 231 229
346 346 346 346 345 346 344 340 332 325 319 311 303 296 289 279 272 267 262 256 251 248 246 246 244 243 242 242 241 240 239 239 239 237 236 235 234 234 234 234 233 232 231
354 355 355 354 354 355 354 349 343 337 330 322 315 308 302 291 281 275 267 260 255 251 248 247 246 245 244 243 242 241 240 240 239 237 235 235 235 234 234 235 234 233 232
3 3 4 3 3 2 1 359 357 353 347 341 334 324 314 305 296 286 275 266 260 255 252 249 248 247 247 245 244 244 241 240 238 238 236 235 235 235 234 234 235 234 233
10 10 9 9 9 9 9 9 8 6 2 359 352 343 331 320 308 297 286 275 267 260 255 252 250 249 248 246 245 245 243 241 239 238 237 236 235 233 234 234 235 235 234
15 14 14 14 15 16 15 15 14 13 10 7 3 357 349 339 328 315 302 289 277 267 261 256 253 251 249 248 246 245 243 241 240 238 237 236 236 234 234 233 234 235 234
18 18 18 18 20 20 20 18 18 16 15 12 9 5 359 352 343 332 318 303 288 277 269 263 258 255 253 250 248 246 244 241 239 238 237 237 237 236 235 236 235 235 235
22 21 21 22 24 24 24 23 22 21 20 18 16 13 9 5 357 347 334 320 304 289 279 271 264 260 256 253 250 247 245 242 241 239 238 238 238 238 237 238 237 235 236
25 24 24 25 25 26 25 24 23 22 22 21 19 17 14 11 6 359 350 338 324 309 294 282 273 265 259 255 251 248 245 244 241 240 238 237 237 238 239 240 238 237 237
28 27 26 26 26 25 24 24 24 25 24 22 20 19 15 12 9 5 360 352 339 326 314 299 285 273 266 260 255 250 246 244 241 239 237 237 237 238 239 240 239 239 239
29 29 28 28 27 25 23 23 24 24 24 23 21 20 19 17 14 11 8 3 355 344 331 318 303 289 278 268 257 250 245 243 240 237 236 236 237 238 239 239 240 240 240
28 27 27 26 25 23 22 22 22 22 22 22 22 21 20 20 19 17 14 11 7 2 355 344 330 312 294 278 264 253 245 241 239 237 235 234 234 235 238 239 241 241 241
24 23 23 22 21 20 20 20 20 19 19 19 20 20 20 19 19 19 17 16 14 12 9 2 352 338 320 298 273 257 248 243 239 239 237 234 234 233 236 238 240 240 242
20 19 18 17 17 16 16 16 16 16 16 16 17 18 19 19 19 19 18 18 17 16 15 14 10 3 351 337 307 273 255 245 238 238 236 237 236 233 234 236 238 240 241
14 13 13 13 12 13 13 13 13 12 13 13 14 15 17 18 19 20 19 20 20 20 19 19 17 14 10 3 351 323 273 249 238 237 236 237 235 233 234 236 237 240 241
7 7 8 8 8 8 7 7 8 8 9 11 12 13 15 16 18 20 21 21 21 22 22 22 22 22 22 20 15 7 342 281 249 240 237 235 235 233 233 233 234 237 239
0 1 2 3 3 3 3 4 5 6 8 10 11 12 13 15 16 18 20 21 22 23 25 26 27 28 29 29 25 20 10 347 282 252 234 233 232 232 232 233 234 235 235
354 355 355 356 356 357 358 359 1 2 4 6 8 9 11 12 14 16 17 20 21 23 25 27 29 30 31 31 28 25 23 17 352 269 242 236 228 227 228 230 230 231 231
347 349 350 350 350 351 352 353 355 357 359 1 3 5 7 8 10 12 14 16 19 21 24 26 28 30 30 31 30 29 29 28 21 352 265 230 225 222 223 223 226 224 223
339 341 342 343 344 345 346 347 349 351 352 354 356 359 1 3 5 7 10 13 15 18 21 25 27 28 29 30 31 31 31 31 29 29 25 228 224 221 224 223 221 215 215
331 333 334 335 337 338 339 340 342 344 345 347 349 351 354 356 358 1 4 7 10 14 17 20 23 25 26 27 28 28 28 29 29 31 30 17 237 220 220 219 219 218 219
323 325 327 328 330 331 332 334 335 337 338 340 341 343 345 347 349 352 355 358 2 6 9 13 15 18 20 22 23 25 25 26 27 27 28 28 24 218 219 218 213 215 220
317 318 320 321 323 325 326 327 329 331 332 333 334 335 337 339 340 342 344 348 351 354 358 1 5 8 11 14 16 17 19 21 21 23 25 26 27 27 223 226 226 223 221
312 313 314 315 316 317 318 320 322 324 325 326 327 329 330 330 332 333 334 335 338 341 344 347 350 353 356 359 4 6 9 12 14 15 16 16 18 16 328 222 217 224 217
308 309 309 309 310 310 311 313 314 315 316 317 318 319 320 322 323 324 325 326 326 328 330 332 335 338 341 345 347 351 355 358 1 3 6 10 12 6 345 228 221 224 224
Height
5847 5842 5838 5834 5830 5826 5822 5818 5815 5813 5811 5809 5808 5807 5806 5806 5806 5806 5807 5808 5810 5812 5814 5817 5820 5823 5826 5829 5832 5836 5838 5841 5845 5847 5850 5853 5855 5859 5862 5865 5868 5870 5873
5845 5840 5836 5832 5827 5823 5819 5815 5812 5809 5807 5805 5803 5802 5801 5800 5799 5799 5799 5800 5802 5804 5806 5808 5811 5814 5817 5820 5823 5827 5830 5834 5837 5840 5842 5846 5849 5852 5855 5859 5862 5864 5867
5843 5839 5834 5830 5825 5821 5817 5812 5809 5806 5804 5802 5800 5798 5796 5795 5794 5793 5793 5794 5795 5796 5798 5800 5802 5805 5808 5811 5814 5818 5822 5825 5828 5832 5835 5839 5842 5845 5848 5851 5855 5858 5861
5843 5838 5833 5829 5824 5820 5816 5811 5807 5804 5801 5799 5796 5794 5792 5791 5789 5788 5788 5788 5789 5790 5791 5792 5794 5796 5799 5802 5805 5808 5812 5816 5820 5823 5827 5831 5834 5837 5841 5844 5847 5851 5854
5842 5838 5833 5829 5824 5820 5815 5811 5807 5803 5800 5797 5794 5792 5789 5787 5785 5784 5783 5783 5783 5783 5784 5785 5787 5789 5791 5793 5796 5799 5803 5807 5811 5814 5818 5822 5825 5829 5833 5837 5840 5844 5847
5842 5838 5834 5829 5825 5820 5816 5811 5807 5803 5799 5796 5792 5789 5787 5784 5782 5780 5779 5778 5778 5778 5778 5779 5780 5781 5783 5785 5787 5790 5793 5797 5801 5805 5809 5813 5817 5821 5825 5829 5832 5836 5839
5843 5839 5834 5830 5825 5821 5816 5812 5808 5804 5800 5796 5792 5788 5785 5782 5779 5777 5775 5774 5773 5772 5772 5772 5773 5774 5775 5777 5779 5781 5784 5787 5791 5795 5799 5803 5808 5812 5816 5820 5824 5827 5831
5844 5839 5835 5831 5826 5822 5818 5813 5809 5804 5800 5796 5792 5788 5784 5780 5777 5774 5772 5770 5768 5767 5767 5767 5767 5767 5768 5770 5771 5773 5775 5778 5782 5786 5790 5794 5799 5803 5808 5811 5815 5819 5822
5845 5841 5837 5832 5828 5824 5819 5815 5810 5806 5801 5797 5792 5788 5784 5780 5776 5773 5769 5767 5765 5763 5762 5761 5760 5761 5761 5762 5763 5764 5767 5769 5772 5776 5780 5785 5789 5794 5798 5802 5806 5811 5814
5846 5842 5838 5834 5830 5825 5821 5817 5812 5807 5803 5798 5793 5788 5784 5780 5776 5772 5768 5765 5762 5759 5757 5756 5755 5754 5754 5754 5755 5756 5758 5760 5763 5767 5771 5776 5780 5785 5789 5793 5797 5801 5806
5847 5843 5840 5836 5832 5827 5823 5819 5814 5809 5804 5800 5795 5790 5785 5780 5776 5771 5767 5763 5759 5756 5753 5751 5749 5748 5747 5747 5747 5748 5750 5752 5755 5759 5763 5767 5771 5776 5781 5785 5789 5793 5796
5849 5845 5841 5837 5833 5829 5825 5821 5816 5812 5807 5802 5797 5792 5787 5781 5776 5771 5767 5762 5758 5754 5750 5747 5745 5743 5742 5741 5741 5741 5743 5745 5748 5751 5755 5759 5763 5767 5772 5776 5780 5784 5788
5850 5847 5843 5839 5835 5831 5827 5823 5818 5814 5809 5804 5799 5794 5789 5783 5778 5772 5767 5762 5757 5753 5749 5745 5742 5740 5738 5737 5736 5736 5737 5739 5741 5744 5748 5752 5755 5759 5764 5767 5771 5775 5779
5852 5848 5845 5841 5837 5833 5829 5824 5820 5816 5811 5806 5801 5796 5791 5785 5780 5774 5769 5764 5758 5753 5748 5744 5740 5737 5735 5734 5733 5732 5733 5734 5736 5739 5742 5745 5748 5752 5756 5760 5764 5767 5771
5853 5849 5846 5842 5838 5834 5830 5826 5822 5817 5813 5808 5803 5798 5793 5788 5782 5777 5771 5765 5760 5754 5749 5744 5740 5737 5734 5732 5731 5730 5730 5731 5732 5734 5737 5740 5743 5746 5749 5753 5756 5760 5763
5853 5850 5846 5843 5839 5835 5831 5827 5823 5819 5814 5809 5805 5800 5795 5790 5784 5779 5773 5767 5762 5756 5751 5746 5741 5737 5734 5732 5730 5729 5728 5729 5729 5731 5733 5735 5737 5740 5743 5746 5750 5753 5756
5854 5850 5847 5843 5840 5836 5832 5828 5824 5820 5815 5811 5806 5801 5797 5792 5787 5781 5776 5770 5764 5759 5753 5748 5743 5739 5735 5733 5731 5729 5728 5727 5727 5728 5730 5731 5733 5735 5738 5740 5743 5746 5749
5853 5850 5847 5843 5840 5836 5833 5829 5825 5820 5816 5812 5807 5803 5798 5793 5789 5784 5778 5773 5767 5762 5756 5751 5746 5742 5738 5735 5732 5730 5728 5727 5727 5727 5727 5728 5729 5731 5733 5735 5738 5740 5743
5853 5850 5846 5843 5840 5836 5833 5829 5825 5821 5817 5813 5808 5804 5800 5795 5791 5786 5781 5775 5770 5765 5760 5755 5750 5745 5741 5738 5735 5732 5729 5727 5727 5726 5726 5727 5727 5728 5730 5731 5733 5735 5738
5852 5849 5846 5842 5839 5836 5832 5829 5825 5821 5817 5813 5809 5805 5801 5796 5792 5788 5783 5778 5773 5768 5763 5758 5754 5749 5745 5741 5738 5734 5731 5729 5727 5726 5726 5726 5726 5727 5728 5729 5730 5731 5733
5850 5847 5844 5841 5838 5835 5831 5828 5825 5821 5817 5813 5809 5805 5801 5797 5793 5789 5784 5780 5775 5771 5766 5762 5757 5753 5749 5745 5741 5738 5734 5731 5729 5727 5726 5726 5726 5726 5727 5727 5728 5729 5731
5848 5845 5842 5839 5836 5833 5830 5827 5823 5820 5816 5813 5809 5805 5801 5797 5794 5790 5786 5782 5777 5773 5769 5765 5761 5756 5752 5749 5745 5741 5738 5735 5732 5729 5728 5727 5726 5726 5726 5726 5727 5728 5729
5845 5843 5840 5837 5834 5831 5828 5825 5822 5818 5815 5812 5808 5804 5801 5797 5793 5790 5786 5782 5778 5775 5771 5767 5763 5759 5755 5751 5748 5744 5741 5737 5734 5732 5730 5728 5727 5726 5726 5726 5726 5727 5728
5841 5839 5836 5834 5831 5828 5825 5822 5819 5816 5813 5810 5806 5803 5799 5796 5793 5789 5786 5782 5779 5775 5772 5768 5764 5761 5757 5754 5750 5747 5743 5740 5736 5734 5731 5729 5728 5727 5726 5726 5726 5726 5727
5837 5834 5832 5829 5827 5824 5821 5819 5816 5813 5810 5807 5803 5800 5797 5794 5791 5787 5784 5781 5778 5775 5772 5768 5765 5761 5758 5755 5751 5748 5745 5742 5738 5735 5733 5731 5729 5727 5727 5726 5726 5726 5726
5832 5829 5826 5824 5821 5818 5816 5814 5811 5808 5805 5802 5799 5796 5794 5791 5788 5785 5782 5779 5776 5773 5770 5767 5764 5761 5758 5755 5752 5749 5746 5743 5740 5737 5734 5732 5730 5728 5727 5727 5726 5726 5726